Jacksonville NAS, FL

3:27 PM EDT on May 28, 2017 (GMT -0400)
Jacksonville Naval Air Station

Weather History for KNIP - December, 2013

Change the Weather History Date:

Sunday, December 22, 2013

  Actual Average Record
Temperature  
Mean Temperature 76 °F -  
Max Temperature 82 °F 61 °F 82 °F (1998)
Min Temperature 69 °F 44 °F 37 °F (2000)
Cooling Degree Days 10    
Growing Degree Days 26 (Base 50)    
Moisture  
Dew Point 67 °F    
Average Humidity 78    
Maximum Humidity 93    
Minimum Humidity 58    
Precipitation  
Precipitation 0.00 in - - ()
Sea Level Pressure  
Sea Level Pressure 30.10 in    
Wind  
Wind Speed 10 mph (South)    
Max Wind Speed 15 mph    
Max Gust Speed -    
Visibility 10 miles    
Events      
Averages and records for this station are not official NWS values.
T = Trace of Precipitation, MM = Missing Value Source: NWS Daily Summary

Daily Weather History Graph

Daily Weather History Graph

Search for Another Location

Airport or City:

Trip Planner

Search our weather history database for the weather conditions in past years. The results will help you decide how hot, cold, wet, or windy it might be!

Date:

Astronomy

Dec. 22, 2013 Rise Set
Actual Time 7:19 AM EST 5:31 PM EST
Civil Twilight 6:53 AM EST 5:57 PM EST
Nautical Twilight 6:23 AM EST 6:27 PM EST
Astronomical Twilight 5:53 AM EST 6:57 PM EST
Moon 10:22 PM EST (12/22) 10:33 AM EST (12/22)
Length of Visible Light 11h 04m
Length of Day
10h 11m
Waning Gibbous, 77% of the Moon is Illuminated
Dec 22
Waning Gibbous
Dec 25
Last Quarter
Jan 1
New
Jan 7
First Quarter
Jan 15
Full

Hourly Weather History & Observations

Time (EST) Temp. Heat Index Dew Point Humidity Pressure Visibility Wind Dir Wind Speed Gust Speed Precip Events Conditions
12:53 AM 72.0 °F - 68.0 °F 87% 30.09 in 10.0 mi South 10.4 mph - N/A   Scattered Clouds
1:19 AM 72.0 °F - 68.0 °F 87% 30.10 in 10.0 mi South 10.4 mph - N/A   Mostly Cloudy
1:53 AM 72.0 °F - 68.0 °F 87% 30.09 in 10.0 mi South 10.4 mph - N/A   Mostly Cloudy
2:53 AM 72.0 °F - 68.0 °F 87% 30.09 in 10.0 mi South 11.5 mph - N/A   Scattered Clouds
3:53 AM 71.1 °F - 68.0 °F 90% 30.09 in 10.0 mi South 9.2 mph - N/A   Partly Cloudy
4:53 AM 70.0 °F - 66.9 °F 90% 30.09 in 10.0 mi South 8.1 mph - N/A   Scattered Clouds
5:53 AM 69.1 °F - 66.9 °F 93% 30.10 in 9.0 mi South 6.9 mph - N/A   Scattered Clouds
6:53 AM 70.0 °F - 66.9 °F 90% 30.09 in 9.0 mi South 9.2 mph - N/A   Mostly Cloudy
7:53 AM 71.1 °F - 68.0 °F 90% 30.10 in 9.0 mi South 13.8 mph - N/A   Mostly Cloudy
8:53 AM 71.1 °F - 68.0 °F 90% 30.12 in 10.0 mi South 10.4 mph - N/A   Mostly Cloudy
9:53 AM 73.0 °F - 68.0 °F 84% 30.14 in 10.0 mi South 10.4 mph - N/A   Mostly Cloudy
10:53 AM 75.9 °F - 68.0 °F 76% 30.14 in 10.0 mi South 15.0 mph - N/A   Mostly Cloudy
11:53 AM 77.0 °F - 66.9 °F 71% 30.12 in 10.0 mi South 15.0 mph - N/A   Mostly Cloudy
12:53 PM 78.1 °F - 66.9 °F 68% 30.09 in 10.0 mi South 10.4 mph - N/A   Mostly Cloudy
1:53 PM 79.0 °F - 66.0 °F 64% 30.08 in 10.0 mi South 12.7 mph - N/A   Mostly Cloudy
2:53 PM 82.0 °F 84.1 °F 66.0 °F 58% 30.07 in 10.0 mi South 11.5 mph - N/A   Mostly Cloudy
3:53 PM 82.0 °F 84.1 °F 66.0 °F 58% 30.07 in 10.0 mi South 6.9 mph - N/A   Mostly Cloudy
4:53 PM 80.1 °F 82.3 °F 66.9 °F 64% 30.08 in 10.0 mi South 5.8 mph - N/A   Mostly Cloudy
5:53 PM 80.1 °F 82.3 °F 66.9 °F 64% 30.08 in 10.0 mi SSE 5.8 mph - N/A   Mostly Cloudy
6:53 PM 77.0 °F - 66.9 °F 71% 30.09 in 10.0 mi SE 6.9 mph - N/A   Scattered Clouds
7:53 PM 75.0 °F - 66.9 °F 76% 30.10 in 10.0 mi SSE 5.8 mph - N/A   Scattered Clouds
8:53 PM 73.9 °F - 66.9 °F 79% 30.12 in 10.0 mi WSW 5.8 mph - N/A   Mostly Cloudy
9:53 PM 75.0 °F - 66.9 °F 76% 30.12 in 10.0 mi SSE 6.9 mph - N/A   Mostly Cloudy
10:53 PM 75.0 °F - 66.9 °F 76% 30.13 in 10.0 mi South 6.9 mph - N/A   Mostly Cloudy
11:53 PM 73.0 °F - 66.0 °F 79% 30.14 in 10.0 mi South 6.9 mph - N/A   Scattered Clouds